Location: Les Chemineaux
(47.3024°N, 1.5104°E)
Time: 20:13:05
(UTC+00:00)

ERS-1 Rocket - Pass Details

Date: 19 May 2025
Orbit: 747 x 753 km, 98.2° (Epoch: 21 June)

Event Time Altitude Azimuth Distance (km) Brightness Sun altitude
Exits shadow 20:04:55 - 149° (SSE) 2,701 5.2 -5.8°
Reaches altitude 10° 20:06:00 10° 147° (SSE) 2,272 4.8 -6.0°
Maximum altitude 20:10:52 55° 71° (ENE) 910 3.2 -6.6°
Drops below altitude 10° 20:15:47 10° 354° (N) 2,288 6.2 -7.3°
Sets 20:18:07 0° 350° (N) 3,217 7.1 -7.6°
